{"data":{"norad_id":64262,"epoch":"2026-05-25T02:44:50.952768Z","epoch_age_seconds":68238,"freshness":"FRESH","line1":"1 64262U 25120G   26145.11447862  .00013350  00000+0  46191-3 0  9996","line2":"2 64262  53.1589 121.9482 0001180 118.8507 241.2612 15.30210828 55615","mean_motion":15.30210828,"eccentricity":0.000118,"inclination_deg":53.1589,"raan_deg":121.9482,"arg_perigee_deg":118.8507,"mean_anomaly_deg":241.2612,"bstar":0.00046191,"rev_number":5561,"period_min":94.104679802985,"perigee_km":474.37404742451,"apogee_km":475.99143088295,"semimajor_km":6853.3197391537,"source":"CELESTRAK","updated_at":"2026-05-25T13:38:20.358067Z"}}